Flag for Turkmenistan Weather past 2 weeks in Ashgabat, Turkmenistan

Now
86 °F

Sunny.


Feels Like: 83 °F
Forecast: 66 / 91 °F
Wind: 22 mph from East

Location: Ashgabat

Current Time: May 25, 2015 at 3:33:39 PM

Latest Report: May 25, 2015 at 3:00 PM


Visibility: 3 mi

Pressure: 29.92 "Hg

Humidity: 12%

Dew point: 28 °F

Location of AshgabatLocation

Historic Weather in Ashgabat — Graph

°F

Ashgabat temperature yesterday

Maximum temperature yesterday: 86 °F (at 4:00 PM)
Minimum temperature yesterday: 64 °F (at 6:00 AM)
Average temperature yesterday: 77 °F

Past Weeks' High & Low Weather Summary

 TemperatureHumidityPressure
High99 °F (May 14, 5:00 PM)100% (May 16, 4:00 AM)30.09 "Hg (May 16, 4:00 AM)
Low46 °F (May 16, 4:00 AM)12% (May 25, 2:30 PM)29.74 "Hg (May 10, 3:00 PM)
Average78 °F35%29.95 "Hg
* Reported May 10 2:00 PM — May 25 2:30 PM, Ashgabat, Weather by CustomWeather, © 2015

Note: Actual official high and low records may vary slightly from our data, if they occured in-between our weather recording intervals... More about our weather records

Advertising

Ashgabat weather history for previous 24 hours

 ConditionsComfort  
Time TempWeatherWind HumidityBarometerVisibility
2:30 PM
Mon, May 25
86 °FSunny.24 mph12%29.92 "Hg3 mi
2:00 PM84 °FSunny.22 mph13%29.92 "Hg3 mi
1:30 PM84 °FSunny.22 mph13%29.95 "Hg3 mi
1:00 PM84 °FSunny.22 mph13%29.95 "Hg4 mi
12:30 PM82 °FSunny.22 mph15%29.95 "Hg3 mi
12:00 PM81 °FSunny.22 mph15%29.95 "Hg3 mi
11:00 AM77 °FSunny.17 mph21%29.98 "HgN/A
10:00 AM75 °FPassing clouds.13 mph24%29.98 "HgN/A
9:00 AM70 °FScattered clouds.15 mph27%29.98 "HgN/A
8:00 AM66 °FScattered clouds.8 mph30%29.98 "HgN/A
7:00 AM63 °FScattered clouds.6 mph34%29.98 "HgN/A
6:00 AM61 °FPassing clouds.10 mph34%29.98 "HgN/A
5:00 AM63 °FPassing clouds.13 mph32%29.98 "HgN/A
4:00 AM66 °FClear.13 mph26%29.98 "HgN/A
3:00 AM68 °FPassing clouds.17 mph24%30.01 "HgN/A
2:00 AM68 °FPassing clouds.15 mph24%30.01 "HgN/A
1:00 AM68 °FPassing clouds.15 mph24%30.04 "HgN/A
12:00 AM70 °FPartly cloudy.15 mph23%30.04 "HgN/A
11:00 PM
Sun, May 24
72 °FPassing clouds.10 mph20%30.04 "HgN/A
10:00 PM72 °FPartly cloudy.8 mph20%30.07 "HgN/A
9:00 PM75 °FPartly sunny.6 mph15%30.04 "HgN/A
8:00 PM79 °FPartly sunny.8 mph15%30.04 "HgN/A
7:00 PM82 °FBroken clouds.8 mph13%30.01 "HgN/A
6:00 PM84 °FBroken clouds.10 mph13%30.01 "HgN/A
5:00 PM84 °FBroken clouds.8 mph14%30.01 "HgN/A
4:30 PM86 °FPartly sunny.6 mph14%30.01 "HgN/A
4:00 PM86 °FPartly sunny.6 mph14%30.01 "HgN/A
3:30 PM84 °FPartly sunny.6 mph15%30.01 "HgN/A
3:00 PM84 °FPartly sunny.6 mph14%30.04 "HgN/A
Weather by CustomWeather, © 2015

See weather overviewHow to use our weather pages